Regional Weather Roundup
Issued by NWS Little Rock, AR

Home | Current Version | Previous Version | Text Only | Print | Product List | Glossary On
Versions: 1 2 3 4 5 6 7 8 9 10 11 12 13 14 15 16 17 18 19 20 21 22 23 24 25 26 27 28 29 30 31 32 33 34 35 36 37 38 39 40 41 42 43 44 45 46 47 48 49 50
000
ASUS44 KLZK 220305
RWRLZK

WEATHER ROUNDUP FOR ARKANSAS
NATIONAL WEATHER SERVICE LITTLE ROCK AR
1000 PM CDT THU SEP 21 2017

NOTE: "FAIR" INDICATES FEW OR NO CLOUDS BELOW 12,000 FEET WITH NO
SIGNIFICANT WEATHER AND/OR OBSTRUCTIONS TO VISIBILITY.

ARZ001-003-010-029-220400-
NORTHWEST ARKANSAS

CITY           SKY/WX    TMP DP  RH WIND       PRES   REMARKS
FAYETTEVILLE   CLEAR     68  68 100 NW3       29.98R
FORT SMITH     CLEAR     81  70  69 SE5       29.94R
HARRISON       CLEAR     75  69  81 S3        30.01R
BENTONVILLE    CLEAR     76  69  79 SE5       30.00R
ROGERS         CLEAR     76  69  79 SE7       29.99R
SILOAM SPGS    CLEAR     75  70  84 SE7       29.98R
HIGHFILL       CLEAR     74  70  87 S3        29.98R
$$

ARZ004-005-016-220400-
NORTH CENTRAL ARKANSAS

CITY           SKY/WX    TMP DP  RH WIND       PRES   REMARKS
BATESVILLE     CLEAR    N/A N/A N/A E3        30.00R
FLIPPIN        CLEAR     77  67  71 CALM      29.99R
MTN HOME       CLEAR     77  69  76 S3        29.99R
$$

ARZ040-041-220400-
WEST CENTRAL ARKANSAS

CITY           SKY/WX    TMP DP  RH WIND       PRES   REMARKS
MENA           CLEAR     79  75  89 CALM      30.01R
MOUNT IDA      CLEAR     81  67  62 VRB3      29.98R
$$

ARZ009-017-025-026-028-220400-
NORTHEAST ARKANSAS

CITY           SKY/WX    TMP DP  RH WIND       PRES   REMARKS
JONESBORO      CLEAR     74  71  91 CALM      29.99R
NEWPORT        CLEAR     74  71  91 SE5       29.99R
BLYTHEVILLE    CLEAR     76  73  91 SE3       30.01R
$$

ARZ022-023-033-042-044-220400-
CENTRAL ARKANSAS

CITY           SKY/WX    TMP DP  RH WIND       PRES   REMARKS
LITTLE ROCK    CLEAR     77  73  87 S6        29.98R
N LITTLE ROCK    N/A     79  71  75 CALM      29.99R
JACKSONVILLE   CLEAR     76  72  87 CALM      29.98R
CONWAY           N/A     77  72  83 SE7       29.96S
SEARCY         CLEAR     74  74 100 CALM      30.00R
HOT SPRINGS    CLEAR     81  72  74 SE5       29.99R HX  85
RUSSELLVILLE   CLEAR     77  71  82 CALM      29.97R
CLINTON        FAIR      73  72  94 CALM      30.00R
$$

ARZ036-220400-
EAST ARKANSAS

CITY           SKY/WX    TMP DP  RH WIND       PRES   REMARKS
WEST MEMPHIS   CLEAR     73  72  96 CALM      29.99R
$$

ARZ050-053-066-070-073-220400-
SOUTHWEST ARKANSAS

CITY           SKY/WX    TMP DP  RH WIND       PRES   REMARKS
ARKADELPHIA    FAIR      71  70  96 CALM      29.99R
CAMDEN         CLEAR     73  70  88 CALM      29.98R
TEXARKANA      CLEAR     78  71  79 SE5       29.98R
EL DORADO      CLEAR     75  73  93 CALM      29.99R
DE QUEEN       CLEAR     81  73  76 SE5       29.95R HX  86
$$

ARZ056-057-069-220400-
SOUTHEAST ARKANSAS

CITY           SKY/WX    TMP DP  RH WIND       PRES   REMARKS
PINE BLUFF     CLEAR     76  73  91 CALM      29.99R
STUTTGART      CLEAR     80  72  76 S5        29.99R
MONTICELLO     PTCLDY    76  73  91 CALM      29.99R

$$






USA.gov is the U.S. government's official web portal to all federal, state and local government web resources and services.